Siga o Apolo11 no Facebook   Siga o Apolo11 no Twiiter
Ciência, Espaço e Tecnologia




Elementos Keplerianos formato Two Line

Para que um programa de rastreio possa saber a localização exata de qualquer satélite no espaço e assim poder rastreá-lo corretamente, é necessário que ele seja carregado com algumas informações.

Estas informações são chamadas de Elementos Orbitais ou Elementos Keplerianos e consistem em 2 linhas com dezenas de números. Esses números nada mais são que os parâmetros orbitais do satélite, tais como altitude, atitude, excentricidade da órbita, número de órbitas por dia, etc.

Com base nestas informações o programa é capaz de determinar com bastante exatidão a posição de qualquer satélite no espaço e nos informar em qual horário este estará dentro do alcance de nossa estação. Para que isso seja feito com precisão é necessário que os dados estejam sempre bem atualizadas.

Devido aos parâmetros orbitais serem descritos em 2 linhas, estes formato é também conhecido internacionalmente por 2line (leia-se Two Line”).

Para atualizar seu programa de rastreio basta copiar os dados disponibilizados e fornece-los ao programa. Nossos elementos orbitais são atualizados diariamente.

NOAATodos os satélites ambientais da série NOAA
30 DiasSatélites lançados nos últimos 30 dias
ISSSatélites e foguetes relacionados à Estação Espacial Internacional
HAMSatélites construídos por radiomadores
CUBESatélites tipo cubo, com 10 centímetros de lado
METEOSatélites voltados à previsão do tempo
EDUSatélites construídos e operados por universidades
VIS100 satélites mais brilhantes que podem ser vistos a olho nú



Satélites Educacionais
SAUDISAT 1C             
1 27607U 02058C   22277.86529862  .00001517  00000+0  22709-3 0  9999
2 27607  64.5552 327.0491 0081659 273.5640  85.6126 14.76282582 64523
SAUDISAT 2              
1 28371U 04025F   22277.66117995  .00000211  00000+0  60118-4 0  9999
2 28371  98.3901 234.6869 0026485 128.1054 232.2530 14.54607612969161
SAUDISAT 3              
1 31118U 07012B   22277.60404179  .00000456  00000+0  85246-4 0  9998
2 31118  97.9788 222.0593 0014446 203.6502 156.4042 14.69377814829139
PISAT                   
1 41784U 16059B   22277.84003142  .00001028  00000+0  20354-3 0  9994
2 41784  97.9053 316.8818 0031714 181.2401 178.8729 14.64023050321695
FLYING LAPTOP           
1 42831U 17042G   22277.78948110  .00001378  00000+0  14097-3 0  9992
2 42831  97.4102 125.8353 0014014   8.1227 352.0243 14.91965688284392
SALSAT                  
1 46495U 20068K   22277.35570331  .00004700  00000+0  33536-3 0  9994
2 46495  97.7366 218.7551 0014299 268.7459  91.2129 15.04958697110564


IMAGENS DE SATÉLITES !    Clique e conheça nosso Vídeo Workshop de sensoriamento remoto e imagens meteorológicas.
Apolo11.com - Todos os direitos reservados - 2001 - 2022
Política de Privacidade

"Dei comida aos pobres e chamaram-me santo. Perguntei por que tinham fome e chamaram-me comunista" - Dom Helder Camara